Retour au catalogue

ARIANE 42P+ DEB

LostHEO
NORAD 34192·DEBRIS·🇫🇷 France

Lancé Oct 28, 1992 depuis Guiana Space Centre

Loading…

Prochains Passages (prochaines 24 heures)

TLE

PériméSource: Space-Track

Époque: Nov 14, 2025, 22:32 UTC

1 34192U 92072Y   25318.93949329  .00000350  00000-0  15068-2 0  9996
2 34192   8.1819 278.7928 6481313 187.9340 152.1855  3.17181315243353

Suivez ARIANE 42P+ DEB en temps réel avec AllMySat

Download on the App Store